Maya-2
1 47929U 98067SF 22139.59200044 .00255965 00000-0 12669-2 0 9990
2 47929 51.6337 92.3981 0005096 99.3831 260.7747 15.80743559 67174
GuaraniSat-1
1 47931U 98067SH 22139.57512315 .00271881 00000-0 13198-2 0 9991
2 47931 51.6324 92.2998 0004791 98.3418 261.8127 15.81123644 67218
CubeSX-Sirius-HSE
1 47951U 21022V 22139.75583226 .00005506 00000-0 36809-3 0 9993
2 47951 97.5320 39.8779 0019715 242.3702 203.5966 15.07217412 63673
CubeSX-HSE
1 47952U 21022W 22139.74485559 .00006390 00000-0 42574-3 0 9991
2 47952 97.5331 39.8836 0019574 241.7443 207.8412 15.07280566 63671
KSU-Cubesat
1 47954U 21022Y 22139.23227191 .00007366 00000-0 48746-3 0 9994
2 47954 97.5330 39.4718 0018931 242.6539 117.2762 15.07487988 63320
GRBAlpha
1 47959U 21022AD 22139.74253634 .00006510 00000-0 43340-3 0 9991
2 47959 97.5326 39.9166 0019547 242.4571 202.4187 15.07301844 62491
Orbicraft-Zorkiy
1 47960U 21022AE 22139.78650789 .00006426 00000-0 42651-3 0 9999
2 47960 97.5361 40.0799 0019047 241.8485 204.1510 15.07431939 63195
STECCO
1 47962U 21022AG 22139.76768142 .00009323 00000-0 58791-3 0 9993
2 47962 97.5322 40.6623 0014112 234.2168 174.7035 15.09258764 62545
DO-111
1 47963U 21022AH 22139.51251810 .00031469 00000-0 17961-2 0 9995
2 47963 97.5342 41.2233 0015261 226.9046 133.0909 15.12578536 62578
MO-110
1 47964U 21022AJ 22139.27983198 .00012602 00000-0 78438-3 0 9995
2 47964 97.5324 40.4118 0017138 232.9759 126.9902 15.09614474 62487
FEES
1 48082U 21022AL 22139.61756792 .00018459 00000-0 11361-2 0 9990
2 48082 97.5332 40.6332 0013239 226.7099 133.3027 15.09987785 62235
RamSat
1 48850U 98067SL 22139.61130058 .00109946 00000-0 10286-2 0 9994
2 48850 51.6373 104.5608 0003621 29.0647 331.0550 15.66402935 52809
TUBIN
1 48900U 21059X 22139.69005736 .00006171 00000-0 34621-3 0 9995
2 48900 97.5491 269.2320 0009873 195.9143 272.2632 15.13682126 49564
IT-SPINS
1 49017U 21013G 22139.38273027 .00014753 00000-0 57670-3 0 9995
2 49017 51.5960 178.7730 0009016 335.7530 24.3022 15.26033236 49348
LEDSAT
1 49069U 21073D 22139.46378146 .00007128 00000-0 45730-3 0 9997
2 49069 97.5250 212.9291 0027999 37.0874 323.2282 15.08466500 41461
CUTE
1 49263U 21088D 22139.50179637 .00008087 00000-0 60451-3 0 9990
2 49263 97.5893 208.0047 0021434 156.2150 204.0071 15.02857558 35077
Binar-1
1 49272U 98067SR 22139.29984106 .00099929 00000-0 96514-3 0 9996
2 49272 51.6358 109.9561 0002681 114.9015 245.2259 15.65654440 35099
Maya-3
1 49273U 98067SS 22139.01966464 .00158788 00000-0 11933-2 0 9994
2 49273 51.6352 108.8269 0004028 98.0214 262.1241 15.71542982 35089
Maya-4
1 49274U 98067ST 22139.28933906 .00163169 00000-0 12384-2 0 9999
2 49274 51.6343 107.6241 0003999 101.5048 258.6399 15.71293081 35120
CUAVA-1
1 49275U 98067SU 22139.64614168 .00122279 00000-0 10392-2 0 9990
2 49275 51.6354 106.6426 0003933 92.5775 79.3851 15.68715644 35111
TeikyoSat 4
1 49396U 21102B 22139.41778585 .00001739 00000-0 14208-3 0 9997
2 49396 97.5284 198.4065 0016840 7.3553 352.7915 15.00556342 28691
Z-Sat
1 49399U 21102E 22139.86105545 .00003054 00000-0 23356-3 0 9995
2 49399 97.5352 199.4274 0023128 329.0644 30.9217 15.02448155 28790
KOSEN 1
1 49402U 21102H 22139.80983790 .00003478 00000-0 25844-3 0 9994
2 49402 97.5311 199.4788 0020932 322.2327 37.7429 15.03481649 28801
HO-113
1 50466U 21131B 22139.86236346 .00000461 00000-0 16541-3 0 9995
2 50466 98.5807 217.1290 0003818 219.2217 140.8693 14.38487395 20809
Tevel
1 50999U 22002R 22139.79226551 .00011024 00000-0 60177-3 0 9994
2 50999 97.4810 207.3277 0012129 152.0085 355.3511 15.14446746 19080
Grizu-263a
1 51025U 22002AT 22139.43814649 .00023047 00000-0 11996-2 0 9999
2 51025 97.4981 207.4140 0014291 159.4452 200.7358 15.15942091 19044
NO-116
1 51031U 22002AZ 22139.45783027 .00017784 00000-0 94492-3 0 9997
2 51031 97.4943 207.3136 0014271 159.5540 200.6266 15.15267684 19045
IRIS-A
1 51044U 22002BN 22139.44164230 .00007587 00000-0 43051-3 0 9994
2 51044 97.4831 206.8475 0010131 156.5751 203.5943 15.13192236 19027
DELFI-PQ
1 51074U 22002CU 22139.41164842 .00018376 00000-0 93651-3 0 9992
2 51074 97.5062 207.7362 0014366 189.1502 170.9471 15.16731539 19056
SO-115
1 51080U 22002DA 22139.17127167 .00012670 00000-0 65946-3 0 9998
2 51080 97.5083 207.4652 0013858 189.0922 171.0062 15.16080864 19017
SO-114
1 51081U 22002DB 22137.98382316 .00012464 00000-0 64935-3 0 9993
2 51081 97.5079 206.2756 0014101 193.1714 166.9153 15.16050579 18835
GASPACS
1 51439U 98067TB 22139.29205474 .01197052 70537-3 27955-2 0 9992
2 51439 51.6250 108.3287 0007761 113.0915 247.0912 15.96458725 17671
/EX
1
0
SB KEPS @ AMSAT $ORB22132.N
2Line Orbital Elements 22132.AMSAT
HR AMSAT ORBITAL ELEMENTS FOR AMATEUR SATELLITES IN NASA FORMAT
FROM WA5QGD FORT WORTH,TX May 12, 2022
BID: ORB22132.N
DECODE 2-LINE ELSETS WITH THE FOLLOWING KEY:
1 AAAAAU 00 0 0 BBBBB.BBBBBBBB .CCCCCCCC 00000-0 00000-0 0 DDDZ
2 AAAAA EEE.EEEE FFF.FFFF GGGGGGG HHH.HHHH III.IIII JJ.JJJJJJJJKKKKKZ
KEY: A-CATALOGNUM B-EPOCHTIME C-DECAY D-ELSETNUM E-INCLINATION F-RAAN
G-ECCENTRICITY H-ARGPERIGEE I-MNANOM J-MNMOTION K-ORBITNUM Z-CHECKSUM
TO ALL RADIO AMATEURS BT
AO-07
1 07530U 74089B 22132.76238722 -.00000034 00000-0 72540-4 0 9990
2 07530 101.9027 112.5226 0012594 109.4518 13.6224 12.53654756173233
UO-11
1 14781U 84021B 22131.96473612 .00000682 00000-0 88725-4 0 9993
2 14781 97.6163 121.0670 0010037 83.1655 277.0702 14.83605565 55638
LO-19
1 20442U 90005G 22132.63213359 .00000106 00000-0 55483-4 0 9994
2 20442 98.7912 96.9522 0010593 274.9095 85.0879 14.33051792688034
HUBBLE
1 20580U 90037B 22132.50155035 .00002290 00000-0 12501-3 0 9993
2 20580 28.4707 47.0006 0002669 11.0052 162.2544 15.10415710561049
MET-2/21
1 22782U 93055A 22132.21306244 .00000041 00000-0 23687-4 0 9990
2 22782 82.5523 43.0002 0023670 89.1343 20.3893 13.83851755449269
AO-27
1 22825U 93061C 22132.62440096 .00000076 00000-0 47345-4 0 9999
2 22825 98.8900 162.8990 0009012 149.8929 210.2772 14.30165410493309
IO-26
1 22826U 93061D 22132.65625531 .00000088 00000-0 51368-4 0 9995
2 22826 98.8844 162.8131 0009758 137.8777 222.3156 14.30509985493544
FO-29
1 24278U 96046B 22131.31416092 -.00000027 00000-0 78639-5 0 9991
2 24278 98.5196 160.1028 0350641 19.8504 341.5898 13.53114554270589
NOAA-15
1 25338U 98030A 22132.70866438 .00000173 00000-0 90499-4 0 9999
2 25338 98.6470 162.7064 0011155 47.2207 312.9909 14.26121634248173
GO-32
1 25397U 98043D 22132.58774411 .00000039 00000-0 36620-4 0 9990
2 25397 98.8152 82.9663 0001114 156.2147 203.9083 14.23749888238549
ISS
1 25544U 98067A 22132.54238162 .00007330 00000-0 13605-3 0 9992
2 25544 51.6432 153.1122 0006817 89.6534 11.1576 15.50041161339656
NO-44
1 26931U 01043C 22132.17045692 .00000082 00000-0 63092-4 0 9997
2 26931 67.0493 152.0498 0007971 268.6922 91.3266 14.30693791 76373
SO-50
1 27607U 02058C 22132.48195182 .00000709 00000-0 11825-3 0 9991
2 27607 64.5561 51.9745 0076376 301.5144 57.8512 14.76072427 43273
CO-55
1 27844U 03031E 22132.55244683 .00000240 00000-0 12748-3 0 9990
2 27844 98.6795 140.7801 0009385 199.1574 160.9252 14.22431971978804
CO-57
1 27848U 03031J 22132.01173190 .00000176 00000-0 99521-4 0 9992
2 27848 98.6843 140.7744 0008981 215.8305 144.2271 14.21991186978531
RS-22
1 27939U 03042A 22132.66541697 .00000667 00000-0 12690-3 0 9993
2 27939 98.1852 273.4064 0011943 325.1122 34.9300 14.67298582995795
